Flag for China Weather past 2 weeks in Chengdu, Sichuan, China

Now
70 °F

Fog.


Feels Like: 70 °F
Forecast: 68 / 84 °F
Wind: No wind

Location: Chengdu Airport

Current Time: Sep 3, 2014 at 1:35:43 AM

Latest Report: Sep 3, 2014 at 1:00 AM


Visibility: 3 mi

Pressure: 29.95 "Hg

Humidity: 88%

Dew point: 66 °F

Location of ChengduLocation

Historic Weather in Chengdu — Graph

°F

Chengdu temperature yesterday

Maximum temperature yesterday: 81 °F (at 4:00 PM)
Minimum temperature yesterday: 70 °F (at 1:00 AM)
Average temperature yesterday: 74 °F

Past Weeks' High & Low Weather Summary

 TemperatureHumidityPressure
High91 °F (Aug 19, 5:00 PM)94% (Aug 22, 6:00 AM)30.01 "Hg (Aug 22, 6:00 AM)
Low66 °F (Aug 22, 3:00 AM)41% (Aug 31, 3:00 PM)29.71 "Hg (Aug 31, 4:00 PM)
Average75 °F76%29.89 "Hg
* Reported Midnight between Aug 18 and Aug 19 — Midnight between Sep 2 and Sep 3, Chengdu, Weather by CustomWeather, © 2014

Note: Actual official high and low records may vary slightly from our data, if they occured in-between our weather recording intervals... More about our weather records

Advertising

Chengdu weather history for previous 24 hours

 ConditionsComfort  
Time TempWeatherWind HumidityBarometerVisibility
12:00 AM
Sep 3
70 °FClear.1 mph88%29.98 "Hg4 mi
11:00 PM
Sep 2
70 °FClear.No wind88%29.98 "Hg4 mi
10:00 PM72 °FClear.1 mph83%29.95 "Hg5 mi
9:00 PM73 °FClear.No wind78%29.95 "Hg10 mi
8:00 PM77 °FClear.1 mph69%29.92 "Hg10 mi
7:00 PM79 °FPassing clouds.3 mph65%29.92 "HgN/A
6:00 PM79 °FPassing clouds.3 mph65%29.92 "HgN/A
5:00 PM79 °FScattered clouds.3 mph70%29.92 "HgN/A
4:00 PM81 °FScattered clouds.3 mph66%29.95 "Hg5 mi
3:00 PM79 °FScattered clouds.3 mph65%29.95 "Hg5 mi
2:00 PM79 °FScattered clouds.3 mph70%29.98 "HgN/A
1:00 PM77 °FPassing clouds.3 mph69%29.98 "HgN/A
12:00 PM75 °FScattered clouds.3 mph69%30.01 "HgN/A
11:00 AM73 °FScattered clouds.3 mph78%30.01 "HgN/A
10:00 AM73 °FPassing clouds.1 mph78%30.01 "HgN/A
9:00 AM72 °FScattered clouds.1 mph83%29.98 "HgN/A
8:00 AM72 °FScattered clouds.1 mph83%29.95 "HgN/A
7:00 AM70 °FScattered clouds.1 mph88%29.95 "HgN/A
6:00 AM70 °FPassing clouds.3 mph88%29.92 "HgN/A
5:00 AM70 °FPassing clouds.No wind88%29.92 "HgN/A
4:00 AM70 °FPassing clouds.1 mph88%29.92 "HgN/A
3:00 AM70 °FPassing clouds.3 mph83%29.92 "HgN/A
2:00 AM70 °FPassing clouds.3 mph88%29.92 "HgN/A
1:00 AM70 °FSprinkles. Passing clouds.1 mph83%29.95 "HgN/A
Weather by CustomWeather, © 2014

See weather overviewHow to use our weather pages